Location: Budapest
(47.4979°N, 19.0402°E)
Time: 15:56:07
(UTC+02:00)

Envisat - Pass Details

Date: 08 October 2017
Orbit: 764 x 766 km, 98.2° (Epoch: 21 October)

Event Time Altitude Azimuth Distance (km) Brightness Sun altitude
Exits shadow 21:40:46 19° 250° (WSW) 1,754 5.1 -35.0°
Maximum altitude 21:41:58 21° 269° (W) 1,683 5.2 -35.2°
Drops below altitude 10° 21:45:45 10° 317° (NW) 2,312 6.2 -35.7°
Sets 21:48:38 0° 334° (NNW) 3,243 7.0 -36.1°
